Regional Weather Roundup
Issued by NWS Midland/Odessa, TX

Skip options and go directly to product.
Home | Oldest Version | Previous Version | Current Version | All | Text Only | Save Text | Print | Product List | Glossary Off

Skip product version selection by date and time.   

949
ASUS44 KMAF 290410
RWRMAF
MIDLAND AREA WEATHER ROUNDUP
NATIONAL WEATHER SERVICE MIDLAND TX
1000 PM CST WED JAN 28 2015

...IN SOUTHWEST TEXAS AND SOUTHEAST NEW MEXICO...

CITY           SKY/WX    TMP DP  RH WIND       PRES   REMARKS
ALPINE         PTCLDY    54  44  67 S5        30.24F
ANDREWS        FAIR      58  43  57 W5        30.13R
ARTESIA        PTCLDY    52  41  66 W16       30.13R
BIG SPRING     PTCLDY    59  46  61 SE7       30.12R
CARLSBAD       PTCLDY    55  38  52 VRB3      30.10S
DRYDEN           N/A     61  40  45 NE7       30.09R
FORT STOCKTON  MOCLDY    61  48  62 S10       30.12R
GUAD PASS      MOCLDY    59  33  37 W17       30.22S
HOBBS          PTCLDY    48  37  66 W8        30.14R
MARFA          CLEAR     46  39  76 CALM      30.23S
MIDLAND AIRPK  PTCLDY    61  46  57 CALM      30.12S
MIDLAND INTL   PTCLDY    56  45  66 SW3       30.12R
ODESSA         PTCLDY    59  43  55 SW3       30.13R
PECOS          PTCLDY    57  44  62 CALM      30.11R
PRESIDIO       FAIR      64  47  54 NE5       30.10S
SEMINOLE       PTCLDY    52  38  58 W8        30.13R
SNYDER         PTCLDY   N/A N/A N/A W6        30.09R
WINK           PTCLDY    57  40  52 CALM      30.10R
$$
...OTHER STATIONS IN TEXAS...

CITY           SKY/WX    TMP DP  RH WIND       PRES   REMARKS
ABILENE        CLEAR     65  44  46 SW10      30.05R
AMARILLO       MOCLDY    53  32  44 E3        30.13R
AUSTIN         CLEAR     57  45  64 S7        30.12R
BROWNSVILLE    MOCLDY    62  60  93 SE7       30.15R
CORPUS CHRISTI PTCLDY    60  57  89 S9        30.14R
DALLAS FTW     CLEAR     67  41  38 S21       30.00R
DEL RIO        CLEAR     66  39  37 SE8       30.09R
EL PASO        PTCLDY    61  37  41 CALM      30.15S
HOUSTON INT    CLEAR     59  55  87 S5        30.15S
LUBBOCK        MOCLDY    49  34  56 W6        30.11R
SAN ANGELO     PTCLDY    60  42  51 S10       30.09R
SAN ANTONIO    PTCLDY    64  50  60 S12       30.14R
WACO           CLEAR     58  42  55 S12       30.07R
WICHITA FALLS  NOT AVBL
$$
...OTHER LOCATIONS IN NEW MEXICO...

CITY           SKY/WX    TMP DP  RH WIND       PRES   REMARKS
ALAMAGORDO     PTCLDY    50  32  50 E8        30.17F
ALBUQUERQUE    PTCLDY    51  29  42 N10       30.23S
CANNON AFB     MOCLDY    46  33  60 W5        30.15R
CLOVIS         PTCLDY    45  30  57 W7        30.14R
HOLLOMAN AFB   NOT AVBL
ROSWELL        PTCLDY    54  38  54 W8        30.13R
RUIDOSO        PTCLDY    45  28  53 SW9       30.28S WCI  40
SANTA FE       PTCLDY    42  25  50 CALM      30.26R
TRUTH OR CONSE CLEAR     52  34  50 N6        30.17R
TUCUMCARI      PTCLDY    47  34  60 E8        30.12R
$$

USA.gov is the U.S. government's official web portal to all federal, state and local government web resources and services.